Starlink 6278

operational
NORAD ID: 56412 Int'l Des: 2023-061 Owner: SPXS Country: US Constellation: starlink
LEOCIRCULAR

Über Starlink 6278

Beschreibung wird geladen...

Live-Position

3D-Globus wird geladen...

Nächste Überflüge

Höhenverlauf

Altitude vs Time

uPlot chart will show altitude changes over time

Zweizeiliger Elementsatz

1 56412U 23061AQ 25258.69767864 -.00000531 00000-0 -24249-4 0 9991
2 56412 43.0053 55.1177 0001256 269.5143 90.5555 15.02534210130584
Epoch: 15. Sept. 2025 • Age: 24 hours

Aktueller Status

Höhe 562.8 km
Geschwindigkeit 7.59 km/s
Subsatellitenpunkt 41.79°N, 95.68°W
Startdatum 4. Mai 2023
Alter 2.3 years
Typ internet

Technische Details

Klassifizierung Payload
Masse 305.00 kg
Trockenmasse 290.00 kg
Gesamtmasse 305.00 kg
Länge 0.20 m
Durchmesser 2.80 m
Spannweite 9.00 m
Form Box + pan
Hersteller SPXS
Bus-Typ Starlink
Phasenstatus In Orbit
Besitzer/Staat SPXS/US

Große Konstellationen

Loading constellations...